Waukesha, WI

4:00 AM CDT on July 23, 2017 (GMT -0500)
Waukesha County

Weather History for KUES - February, 2013

Change the Weather History Date:

Thursday, February 14, 2013

  Actual Average Record
Temperature  
Mean Temperature 30 °F -  
Max Temperature 33 °F 32 °F 54 °F (1954)
Min Temperature 26 °F 16 °F -4 °F (2015)
Degree Days  
Heating Degree Days 34    
Moisture  
Dew Point 27 °F    
Average Humidity 87    
Maximum Humidity 100    
Minimum Humidity 74    
Precipitation  
Precipitation 0.00 in - - ()
Sea Level Pressure  
Sea Level Pressure 29.76 in    
Wind  
Wind Speed 8 mph (WSW)    
Max Wind Speed 23 mph    
Max Gust Speed 30 mph    
Visibility 8 miles    
Events Rain , Snow    
Averages and records for this station are not official NWS values.
T = Trace of Precipitation, MM = Missing Value Source: NWS Daily Summary

Daily Weather History Graph

Daily Weather History Graph

Search for Another Location

Airport or City:

Trip Planner

Search our weather history database for the weather conditions in past years. The results will help you decide how hot, cold, wet, or windy it might be!

Date:

Astronomy

Feb. 14, 2013 Rise Set
Actual Time 6:51 AM CST 5:23 PM CST
Civil Twilight 6:22 AM CST 5:52 PM CST
Nautical Twilight 5:49 AM CST 6:25 PM CST
Astronomical Twilight 5:16 AM CST 6:58 PM CST
Moon 8:44 AM CST (2/14) 10:35 PM CST (2/14)
Length of Visible Light 11h 30m
Length of Day
10h 31m
Waxing Crescent, 22% of the Moon is Illuminated
Feb 14
Waxing Crescent
Feb 17
First Quarter
Feb 25
Full
Mar 4
Last Quarter
Mar 11
New

Hourly Weather History & Observations

Time (CST) Temp. Windchill Dew Point Humidity Pressure Visibility Wind Dir Wind Speed Gust Speed Precip Events Conditions
12:15 AM 32.0 °F 26.4 °F 28.4 °F 87% 29.68 in 10.0 mi South 5.8 mph - N/A   Overcast
12:35 AM 32.0 °F 26.4 °F 28.4 °F 87% 29.68 in 10.0 mi South 5.8 mph - N/A   Scattered Clouds
12:55 AM 32.0 °F 26.4 °F 28.4 °F 87% 29.68 in 10.0 mi South 5.8 mph - N/A   Mostly Cloudy
1:15 AM 32.0 °F 27.5 °F 30.2 °F 93% 29.67 in 10.0 mi South 4.6 mph - N/A   Overcast
1:35 AM 32.0 °F 27.5 °F 30.2 °F 93% 29.66 in 10.0 mi South 4.6 mph - N/A   Drizzle
1:55 AM 32.0 °F 26.4 °F 30.2 °F 93% 29.66 in 7.0 mi South 5.8 mph - N/A   Drizzle
2:15 AM 32.0 °F 26.4 °F 30.2 °F 93% 29.65 in 7.0 mi South 5.8 mph - N/A Rain Light Rain
2:35 AM 32.0 °F 28.7 °F 30.2 °F 93% 29.64 in 5.0 mi South 3.5 mph - N/A Rain Light Rain
2:55 AM 32.0 °F 25.6 °F 32.0 °F 100% 29.63 in 5.0 mi South 6.9 mph - N/A Snow Light Snow
3:15 AM 32.0 °F 25.6 °F 32.0 °F 100% 29.61 in 7.0 mi SSE 6.9 mph - N/A Rain Light Rain
3:35 AM 32.0 °F 24.8 °F 32.0 °F 100% 29.60 in 7.0 mi SSE 8.1 mph - N/A   Overcast
3:55 AM 32.0 °F 24.8 °F 32.0 °F 100% 29.58 in 10.0 mi SSE 8.1 mph - N/A   Overcast
4:15 AM 32.0 °F 27.5 °F 32.0 °F 100% 29.58 in 10.0 mi South 4.6 mph - N/A   Overcast
4:35 AM 32.0 °F 24.8 °F 32.0 °F 100% 29.58 in 10.0 mi South 8.1 mph - N/A   Mostly Cloudy
5:45 AM 32.0 °F 24.2 °F 30.2 °F 93% 29.57 in 10.0 mi South 9.2 mph - N/A   Overcast
6:45 AM 33.8 °F 27.7 °F 30.2 °F 87% 29.57 in 10.0 mi SW 6.9 mph - N/A   Overcast
7:45 AM 33.8 °F 27.7 °F 30.2 °F 87% 29.58 in 10.0 mi SW 6.9 mph - N/A   Mostly Cloudy
9:45 AM 33.8 °F 24.3 °F 32.0 °F 93% 29.60 in 2.5 mi West 13.8 mph - N/A   Drizzle
10:45 AM 33.8 °F 24.8 °F 32.0 °F 93% 29.62 in 5.0 mi West 12.7 mph - N/A Rain Light Rain
11:45 AM 33.8 °F 22.8 °F 32.0 °F 93% 29.64 in 7.0 mi West 18.4 mph - N/A   Drizzle
12:45 PM 32.0 °F 19.2 °F 30.2 °F 93% 29.66 in 7.0 mi WNW 23.0 mph - N/A Snow Light Snow
1:45 PM 32.0 °F 20.8 °F 28.4 °F 87% 29.71 in 7.0 mi WNW 17.3 mph 28.8 mph N/A   Overcast
2:45 PM 30.2 °F 18.1 °F 26.6 °F 86% 29.75 in 7.0 mi WNW 18.4 mph 29.9 mph N/A   Overcast
3:45 PM 30.2 °F 19.3 °F 26.6 °F 86% 29.80 in 10.0 mi West 15.0 mph - N/A   Overcast
4:45 PM 30.2 °F 20.2 °F 24.8 °F 80% 29.85 in 10.0 mi WNW 12.7 mph - N/A Snow Light Snow
5:45 PM 30.2 °F 20.2 °F 24.8 °F 80% 29.88 in 10.0 mi WNW 12.7 mph - N/A   Overcast
7:45 PM 28.4 °F 18.5 °F 23.0 °F 80% 29.91 in 10.0 mi WNW 11.5 mph - N/A   Overcast
8:15 PM 30.2 °F 22.6 °F 23.0 °F 75% 29.92 in 10.0 mi West 8.1 mph - N/A   Mostly Cloudy
8:35 PM 30.2 °F 22.6 °F 23.0 °F 75% 29.92 in 10.0 mi West 8.1 mph - N/A   Overcast
8:45 PM 28.4 °F 20.4 °F 23.0 °F 80% 29.92 in 10.0 mi WNW 8.1 mph - N/A   Overcast
8:55 PM 30.2 °F 23.4 °F 23.0 °F 75% 29.93 in 10.0 mi West 6.9 mph - N/A   Overcast
9:15 PM 28.4 °F 21.2 °F 23.0 °F 80% 29.93 in 10.0 mi West 6.9 mph - N/A   Mostly Cloudy
9:35 PM 28.4 °F 22.2 °F 23.0 °F 80% 29.93 in 10.0 mi West 5.8 mph - N/A   Mostly Cloudy
9:55 PM 28.4 °F 22.2 °F 23.0 °F 80% 29.94 in 10.0 mi WNW 5.8 mph - N/A   Overcast
10:15 PM 28.4 °F 22.2 °F 23.0 °F 80% 29.94 in 10.0 mi WNW 5.8 mph - N/A   Overcast
10:35 PM 28.4 °F 22.2 °F 21.2 °F 74% 29.94 in 10.0 mi WNW 5.8 mph - N/A   Scattered Clouds
10:55 PM 28.4 °F 22.2 °F 23.0 °F 80% 29.95 in 10.0 mi WNW 5.8 mph - N/A   Mostly Cloudy
11:15 PM 28.4 °F 18.5 °F 21.2 °F 74% 29.95 in 10.0 mi WNW 11.5 mph 17.3 mph N/A   Overcast
11:35 PM 28.4 °F 19.7 °F 23.0 °F 80% 29.96 in 4.0 mi WNW 9.2 mph 12.7 mph N/A Snow Light Snow
11:55 PM 26.6 °F 19.1 °F 24.8 °F 93% 29.96 in 3.0 mi WNW 6.9 mph - N/A Snow Light Snow